Location: ?????
(44.4284°N, 135.2222°E)
Time: 03:49:36
(UTC+00:00)

Cosmos 2084 Rocket - Pass Details

Date: 19 May 2025
Orbit: 542 x 579 km, 62.8° (Epoch: 19 June)

Event Time Altitude Azimuth Distance (km) Brightness Sun altitude
Exits shadow 12:17:05 - 205° (SSW) 2,174 6.1 -16.2°
Reaches altitude 10° 12:17:49 10° 204° (SSW) 1,881 5.8 -16.3°
Maximum altitude 12:22:01 61° 124° (SE) 656 3.4 -16.7°
Drops below altitude 10° 12:26:11 10° 45° (NE) 1,879 6.1 -17.2°
Sets 12:28:26 0° 42° (NE) 2,774 7.1 -17.4°
